SCP
0 0 0 0 0 0 0 0 0 0 0 0 0 0 0 0 0 0 0 0 0 0 0 0 0 0 0 0 0 0 0 0 0 0 0 0 0 0 0 0 0 0 0
0 0 0 0 0 0 0 0 0 0 0 0 0 0 0 0 0 0 0 0 0 0 0 0 0 0 0 0 0 0 0 0 0 0 0 0 0 0 0 0 0 0 0
0 0 0 0 0 0 0 0 0 0 0 0 0 0 0 0 0 0 0 0 0 0 0 0 0 0 0 0 0 0 0 0 0 0 0 0 0 0 0 0 0 0 0
0 0 0 0 0 0 0 0 0 0 0 0 0 0 0 0 0 0 0 0 0 0 0 0 0 0 0 0 0 0 0 0 0 0 0 0 0 0 0 -0 -0 0 0
0 0 0 0 0 0 0 0 0 0 0 0 0 0 0 0 0 0 0 0 0 0 0 0 0 0 0 0 0 0 0 0 0 0 0 0 0 -0 -0 -0 -0 0 0
0 0 0 0 0 0 0 0 0 0 0 0 0 0 0 0 0 0 0 0 0 0 0 0 0 0 0 0 0 0 0 0 0 0 0 0 0 0 0 0 0 0 0
0 0 0 0 0 0 0 0 0 0 0 0 0 0 0 0 0 0 0 0 0 0 0 0 0 0 0 0 0 0 0 0 0 0 0 0 0 0 0 0 0 0 0
0 0 0 0 0 0 0 0 0 0 0 0 0 0 0 0 0 0 0 0 0 0 0 0 0 0 0 0 0 0 0 0 0 0 0 0 0 0 0 0 0 0 0
0 0 0 0 0 0 0 0 0 0 0 0 0 0 0 0 0 0 0 0 0 0 0 0 0 0 0 0 0 0 0 0 0 0 0 0 0 0 0 0 0 0 0
0 0 0 0 0 0 0 0 0 0 0 0 0 0 0 0 0 0 0 0 0 0 0 0 0 0 0 0 0 0 0 0 0 0 0 0 0 0 0 0 0 0 0
0 0 0 0 0 0 0 0 0 0 0 0 0 0 0 0 0 0 0 0 0 0 0 0 0 0 0 0 0 0 0 0 0 0 0 0 0 0 0 0 0 0 0
0 0 0 0 0 0 0 0 0 0 0 0 0 0 0 0 0 0 0 0 0 0 0 0 0 0 0 0 0 0 0 0 0 0 0 0 0 0 0 0 0 0 0
0 0 0 0 0 0 0 0 0 0 0 0 0 0 0 0 0 0 0 0 0 0 0 0 0 0 0 0 0 0 0 0 0 0 0 0 0 0 0 0 0 0 0
0 0 0 0 0 0 0 0 0 0 0 0 0 0 0 0 0 0 0 0 0 0 0 0 0 0 0 0 0 0 0 0 0 0 0 0 0 0 0 0 0 0 0
0 0 0 0 0 0 0 0 0 0 0 0 0 0 0 0 0 0 0 0 0 0 0 0 0 0 0 0 0 0 0 0 0 0 0 0 0 0 0 0 0 0 0
0 0 0 0 0 0 0 0 0 0 0 0 0 0 0 0 0 0 0 0 0 0 0 0 0 0 0 0 0 0 0 0 0 0 0 0 0 0 0 0 0 0 0
0 0 0 0 0 0 0 0 0 0 0 0 0 0 0 0 0 0 0 0 0 0 0 0 0 0 0 0 0 0 0 0 0 0 0 0 0 0 0 0 0 0 0
0 0 0 0 0 0 0 0 0 0 0 0 0 0 0 0 0 0 0 0 0 0 0 0 0 0 0 0 0 0 0 0 0 0 0 0 0 0 0 0 0 0 0
0 0 0 0 0 0 0 0 0 0 0 0 0 0 0 0 0 0 0 0 0 0 0 0 0 0 0 0 0 0 0 0 0 0 0 0 0 0 0 0 0 0 0
0 0 0 0 0 0 0 0 0 0 0 0 0 0 0 0 0 0 0 0 0 0 0 0 0 0 0 0 0 0 0 0 0 0 0 0 0 0 0 0 0 0 0
0 0 0 0 0 0 0 0 0 0 0 0 0 0 0 0 0 0 0 0 0 0 0 0 0 0 0 0 0 0 0 0 0 0 0 0 0 0 0 0 0 0 0
0 0 0 0 0 0 0 0 0 0 0 0 0 0 0 0 0 0 0 0 0 0 0 0 0 0 0 0 0 0 0 0 0 0 0 0 0 0 0 0 0 0 0
0 0 0 0 0 0 0 0 0 0 0 0 0 0 0 0 0 0 0 0 0 0 0 0 0 0 0 0 0 0 0 0 0 0 0 0 0 0 0 0 0 0 0
0 0 0 0 0 0 0 0 0 0 0 0 0 0 0 0 0 0 0 0 0 0 0 0 0 0 0 0 0 0 0 0 0 0 0 0 0 0 0 0 0 0 0
0 0 0 0 0 0 0 0 0 0 0 0 0 0 0 0 0 0 0 0 0 0 0 0 0 0 0 0 0 0 0 0 0 0 0 0 0 0 0 0 0 0 0
0 0 0 0 0 0 0 0 0 0 0 0 0 0 0 0 0 0 0 0 0 0 0 0 0 0 0 0 0 0 0 0 0 0 0 0 0 0 0 0 0 0 0
Wind_Speed
6 6 5 5 4 4 4 3 3 4 3 3 2 3 3 4 4 4 3 7 7 7 7 7 7 8 8 9 9 9 9 10 10 11 11 11 12 12 12 13 13 14 14
6 6 5 5 4 4 4 3 3 3 3 3 2 2 3 3 3 4 4 5 7 6 6 6 6 7 7 7 8 8 8 9 9 10 10 10 11 11 12 12 13 13 14
7 6 5 5 4 4 5 3 3 3 3 3 2 2 2 3 3 4 5 4 3 5 6 5 5 6 6 6 6 7 7 8 8 8 9 10 10 11 11 12 12 13 13
8 6 5 5 5 4 4 3 3 3 3 2 2 2 2 2 1 3 3 3 3 3 4 5 4 4 4 5 5 6 6 6 7 8 8 9 10 11 11 12 12 13 13
9 7 5 5 6 4 4 4 3 3 3 3 2 2 2 2 2 2 2 3 3 4 3 4 4 3 3 3 4 4 5 6 6 7 8 9 10 10 11 12 12 13 14
9 7 6 7 6 5 4 4 4 3 3 3 3 2 1 2 2 2 3 3 3 3 4 4 3 2 2 1 2 4 5 5 6 7 8 9 10 11 11 12 12 13 14
10 8 6 7 6 6 6 6 4 5 3 3 3 1 1 1 2 2 3 3 3 3 3 3 3 3 2 3 1 2 4 5 6 7 8 9 10 11 11 12 13 14 14
10 9 8 7 7 6 7 7 5 4 4 4 4 3 1 1 2 3 3 3 4 3 3 4 3 3 3 2 3 2 4 6 6 7 8 9 10 11 12 12 13 14 15
11 9 10 8 8 7 7 7 7 7 5 4 4 4 4 4 2 2 3 3 4 3 3 3 4 4 3 3 3 3 4 5 7 8 9 10 11 12 13 13 14 15 15
11 11 10 10 9 7 7 7 7 6 7 5 4 3 3 3 3 1 2 3 4 4 5 4 4 4 4 3 4 6 5 6 7 8 9 10 12 13 13 14 14 15 16
11 12 11 10 10 8 9 9 7 7 6 5 4 3 2 1 2 3 2 2 2 3 4 4 4 4 5 4 4 5 6 6 8 9 10 11 12 13 14 15 15 16 17
10 13 12 11 10 9 9 8 9 9 7 7 5 4 4 3 3 3 3 3 3 4 4 3 4 4 4 4 5 7 7 8 8 9 10 11 12 14 15 15 16 17 17
10 14 13 12 10 9 9 9 9 9 9 8 7 5 5 4 4 4 3 3 2 2 2 3 4 4 4 3 4 7 7 8 9 10 11 12 13 14 15 16 16 17 18
11 12 14 12 11 11 10 9 8 8 8 8 8 7 5 5 4 4 4 4 2 1 2 4 3 4 3 3 5 7 5 9 10 11 11 12 13 14 15 16 17 17 18
10 13 14 13 12 12 11 10 8 9 8 8 8 7 5 4 4 4 4 4 5 3 4 4 3 3 3 3 4 3 4 8 11 11 12 12 13 14 15 16 17 17 18
11 13 14 14 13 12 12 10 8 9 9 8 6 7 7 4 4 4 4 4 4 5 4 3 3 2 3 2 5 4 5 9 10 11 12 13 13 14 15 16 17 18 18
12 13 14 14 14 13 12 11 10 10 11 9 8 9 8 7 5 4 4 4 4 4 4 3 1 1 3 3 3 3 3 4 4 10 12 13 14 14 15 16 17 17 18
12 13 13 13 13 13 12 12 12 11 12 11 10 10 9 7 7 5 5 5 4 4 4 4 2 2 3 3 3 3 3 3 3 9 12 13 14 15 15 16 17 17 17
12 12 13 13 13 13 12 12 12 11 11 11 10 11 9 9 8 5 6 6 4 4 3 3 2 1 1 2 2 2 3 3 4 7 10 12 13 14 15 16 16 16 16
12 12 12 12 12 11 11 11 10 10 10 9 8 9 9 10 9 8 7 6 5 4 3 3 2 2 1 1 1 2 3 2 3 4 6 7 10 13 15 16 17 16 16
11 11 11 10 10 10 10 11 10 10 10 9 8 8 8 9 10 8 6 6 6 5 3 3 3 2 2 1 2 2 3 2 3 3 2 4 4 4 6 11 14 15 16
10 10 11 11 11 8 12 15 12 9 9 9 8 7 7 9 10 11 11 11 10 7 6 4 3 4 4 3 2 2 1 1 3 2 2 4 3 4 4 4 11 16 17
10 10 10 11 11 11 15 17 15 10 9 8 8 8 6 6 8 6 8 9 9 9 9 6 5 5 4 4 3 2 2 2 3 3 2 4 3 4 4 7 15 17 17
9 9 9 10 9 10 15 16 16 10 7 7 7 8 8 7 7 7 6 5 5 5 5 5 4 4 3 3 3 2 2 1 2 2 1 3 3 3 5 5 12 15 16
8 8 8 9 9 10 15 16 15 8 6 7 6 6 7 7 9 10 7 6 4 3 3 4 3 2 2 2 2 2 1 1 3 3 1 2 3 4 4 4 6 13 17
7 7 7 8 9 9 13 16 15 7 7 6 5 5 8 8 10 12 8 7 6 4 3 3 2 2 2 2 2 2 2 1 2 3 1 1 2 4 5 3 3 5 7
Wind_Direction
149 147 156 157 167 153 154 182 182 156 147 139 118 108 108 100 99 99 94 84 81 75 71 75 70 67 64 59 53 46 41 36 32 31 27 24 20 17 14 12 9 7 5
152 152 155 158 162 151 162 177 166 148 141 125 119 110 105 109 109 117 121 98 88 82 78 79 75 68 62 59 54 44 37 33 29 26 23 20 16 12 10 7 5 3 1
152 153 151 156 156 154 159 169 156 139 128 124 130 116 97 95 112 127 132 131 112 89 90 85 78 68 59 54 51 43 33 27 24 21 17 13 10 5 4 2 1 358 355
154 154 150 157 156 153 154 156 143 134 131 141 142 128 113 109 115 114 119 131 132 120 102 100 89 76 58 46 40 35 26 20 16 12 9 5 2 358 355 355 354 351 349
158 156 155 159 156 153 155 160 149 148 148 152 140 135 139 141 138 130 137 130 122 129 133 132 122 107 72 40 27 20 13 8 6 2 358 355 353 350 348 348 347 345 344
164 160 158 164 158 154 160 162 160 156 148 150 141 135 152 157 160 167 163 142 144 150 154 156 153 156 153 82 6 359 354 352 351 350 349 346 344 342 340 341 340 339 338
169 166 165 168 164 163 169 169 161 159 158 140 114 109 279 218 198 183 170 163 173 174 167 169 172 167 179 192 237 325 332 333 335 338 338 336 335 334 335 336 334 332 332
175 175 169 171 168 167 173 177 163 157 165 154 146 143 196 275 270 207 183 183 183 178 188 189 180 174 175 169 200 237 299 313 319 324 327 328 327 328 328 329 329 328 328
180 179 176 172 174 172 178 181 170 164 169 179 173 163 166 203 214 238 212 198 192 189 197 193 192 192 187 172 181 217 254 290 304 312 318 320 321 322 323 324 325 325 325
184 183 181 180 178 178 179 183 176 169 165 178 197 207 188 160 148 199 259 225 207 202 201 198 196 198 195 184 186 201 231 269 291 303 311 314 316 318 319 320 321 321 321
190 188 186 186 185 184 183 183 179 177 175 174 178 182 210 215 166 153 214 242 241 227 206 198 197 199 197 190 187 201 225 257 279 293 302 307 311 314 315 316 317 317 317
192 192 190 191 190 187 186 183 182 182 183 181 181 175 168 172 194 180 192 209 224 235 216 203 201 202 198 193 199 204 223 248 270 284 294 301 306 308 311 312 313 314 314
192 196 193 194 194 190 185 180 182 186 185 186 186 188 185 188 178 174 176 200 214 229 208 220 212 199 195 188 199 208 225 246 264 276 285 293 298 303 306 309 312 313 313
192 190 192 195 195 192 189 185 184 186 187 190 192 188 189 195 188 180 174 170 193 243 226 235 225 201 195 186 200 204 229 246 260 270 279 287 293 299 304 306 309 310 311
185 186 191 194 196 195 192 187 190 190 188 192 192 192 192 191 188 186 179 167 168 203 239 232 219 212 191 184 200 204 223 248 259 267 276 284 291 297 301 305 308 308 309
182 183 189 193 195 196 194 191 187 188 189 192 187 190 194 189 188 187 186 185 176 178 221 227 209 200 183 190 209 210 229 254 260 267 277 284 289 295 300 303 305 306 308
181 183 186 190 193 196 194 193 192 188 192 193 190 192 196 188 186 189 184 184 190 180 215 246 215 176 174 206 222 228 240 246 259 270 280 286 292 297 301 303 305 307 309
184 183 183 187 192 194 193 194 193 192 194 195 194 193 196 187 188 185 183 191 198 194 196 225 236 210 210 215 216 234 253 256 254 273 282 289 293 298 301 304 305 307 310
183 181 182 186 189 191 192 194 192 193 196 196 193 194 193 185 191 188 188 194 199 199 194 201 228 219 229 225 227 252 262 267 271 278 284 289 294 300 304 306 308 310 311
182 182 183 184 185 186 189 189 189 190 192 193 192 191 189 189 192 189 190 195 189 192 197 203 219 220 230 244 202 247 274 268 279 284 283 292 298 304 307 309 310 312 312
178 178 177 179 180 183 187 184 185 186 187 188 189 188 187 186 186 185 185 188 185 189 194 202 213 213 222 226 237 232 257 282 286 270 295 298 300 296 301 305 310 312 313
172 173 178 179 181 184 181 180 180 183 184 186 187 185 183 183 186 189 193 191 188 188 193 195 206 217 229 225 220 222 239 288 289 290 306 292 292 290 291 287 309 317 318
170 174 177 177 181 181 176 177 179 177 180 184 185 182 179 180 180 188 194 193 197 196 192 191 202 215 217 211 193 211 228 242 256 271 316 286 285 286 294 308 316 317 320
171 175 176 176 174 175 172 172 171 174 173 178 181 180 178 176 176 173 174 182 191 195 196 196 198 206 196 185 182 191 212 266 294 297 298 279 294 297 305 303 314 322 328
166 168 169 169 170 169 170 168 166 172 171 173 170 170 170 175 176 171 172 177 180 198 187 174 166 172 167 168 148 106 64 345 305 298 308 285 301 312 299 291 313 327 328
155 154 157 163 165 163 167 168 167 168 167 163 159 164 168 170 173 174 176 175 183 193 166 144 138 143 132 144 153 158 168 240 299 290 318 326 311 334 315 296 306 315 318